Regional Weather Roundup
Issued by NWS

Home | Current Version | Previous Version | Text Only | Print | Product List | Glossary Off
Versions: 1 2 3 4 5 6 7 8 9 10 11 12 13 14 15 16 17 18 19 20 21 22 23 24 25 26 27 28 29 30 31 32 33 34 35 36 37 38 39 40 41 42 43 44 45 46 47 48 49 50

000
ASUS43 KLOT 230809
RWRIL

ILLINOIS REGIONAL WEATHER ROUNDUP
NATIONAL WEATHER SERVICE CHICAGO/ROMEOVILLE IL
300 AM CDT MON OCT 23 2017

NOTE: "FAIR" INDICATES FEW OR NO CLOUDS BELOW 12,000 FEET WITH NO
SIGNIFICANT WEATHER AND/OR OBSTRUCTIONS TO VISIBILITY.

* THESE STATIONS ARE NOT UNDER NWS QUALITY CONTROL. THEY ALSO MAY NOT
  REPORT WEATHER SUCH AS PRECIPITATION OR FOG.

ILZ001-002-007-009-015-016-024-230900-
NORTHWEST ILLINOIS

CITY           SKY/WX    TMP DP  RH WIND       PRES   REMARKS
MOLINE         CLOUDY    49  47  93 SW3       30.00S
STERLING*      CLOUDY    49  47  93 NW3         N/A
SAVANNA*       CLOUDY    47  47 100 CALM      29.99F
$$

ILZ003-004-008-010-011-017-018-230900-
NORTH CENTRAL ILLINOIS

CITY           SKY/WX    TMP DP  RH WIND       PRES   REMARKS
ROCKFORD       LGT RAIN  50  47  89 NW5       29.99F
FREEPORT*      CLOUDY    45  45  99 W3        30.00F
ROCHELLE*      CLOUDY    49  48  95 CALM      29.99S
DE KALB*       DRIZZLE   49  48  97 N5        29.97F
PERU*          CLOUDY    49  47  90 N8        29.97F
$$

ILZ005-006-012>014-019>023-230900-
NORTHEAST ILLINOIS

CITY           SKY/WX    TMP DP  RH WIND       PRES   REMARKS
CHICAGO-OHARE  LGT RAIN  52  49  89 N9        29.95F FOG
CHICAGO-MIDWAY LGT RAIN  52  51  97 N8        29.95F
AURORA         LGT RAIN  51  50  96 N7        29.96F FOG
LANSING*       RAIN      53  53 100 N10       29.94S
JOLIET*        LGT RAIN  52  52  99 N8        29.95S
WAUKEGAN       LGT RAIN  50  50 100 N6        29.95F
DUPAGE AIRPORT LGT RAIN  51  51 100 N9        29.95F FOG
KANKAKEE*      RAIN      53  52  97 N9        29.92F
WHEELING       LGT RAIN  52  51  97 NW6       29.96F
MORRIS*        RAIN      51  50  96 N5        29.95S
ROMEOVILLE*    RAIN      51  50  98 N7        29.95F
NORTHERLY ISL    N/A     53  50  89 N12         N/A
$$

LMZ740>746-230900-
SOUTHERN LAKE MICHIGAN

STATION/POSITION SKY/WX   TEMP    WIND        PRES    VSBY  WAVE
                          AIR SEA DIR/SP/G                  HT/PER
                          (F)     (DEG/KT/KT) (MB)    (MI)  (FT/S)
SOUTHERN BUOY              54 60  360/ 16/ 17 1014.1F         2/ 5
WILMETTE HARBOR            53 57  340/ 14/ 17   N/A           3/ 5
HARRISON CRIB              54     350/ 16/ 17   N/A
BURNHAM HARBOR             53     350/ 10/ 13   N/A
CALUMET HARBOR             53     350/ 13/ 18 1013.3F
BURNS HARBOR               57      20/ 12/ 14 1013.9F
MICHIGAN CITY              56      30/ 10/ 10   N/A
MICHIGAN CITY 6N           56 58   20/ 10/ 14   N/A           4/ 6
ST. JOSEPH                 57 59   70/  8/ 10 1013.7          3/ 6
$$

ILZ025>027-034>036-040-047-049-050-058-095>099-230900-
WEST-CENTRAL ILLINOIS

CITY           SKY/WX    TMP DP  RH WIND       PRES   REMARKS
QUINCY         CLOUDY    51  49  92 NW9       29.98F
MACOMB*        CLOUDY    50  49  98 NW7       30.02F
JACKSONVILLE*  CLOUDY    50  48  92 N7        29.97F
PITTSFIELD*    MOCLDY    51  47  89 NW7       29.98F
$$

ILZ028>032-037-038-041>044-048-051>054-059>061-230900-
CENTRAL ILLINOIS

CITY           SKY/WX    TMP DP  RH WIND       PRES   REMARKS
PONTIAC        RAIN      52  51  98 N9        29.95S
BLOOMINGTON    LGT RAIN  50  49  96 N17       29.93
DECATUR        RAIN      52  51  97 NW16      29.91F FOG
PEORIA         CLOUDY    51  49  92 N5        29.97F
LACON*         CLOUDY    50  49  95 N3        29.96F
LINCOLN*       DRIZZLE   52  52 100 NW5       29.94F
SPRINGFIELD    LGT RAIN  52  51  97 NW9       29.96S
TAYLORVILLE    RAIN      50  50  99 NW9       29.94F
$$

ILZ033-039-045-046-055>057-062-063-230900-
EAST-CENTRAL ILLINOIS

CITY           SKY/WX    TMP DP  RH WIND       PRES   REMARKS
CHAMPAIGN      RAIN      54  52  93 N10       29.87F
DANVILLE*      HVY RAIN  55  55 100 N8        29.84F
RANTOUL*       RAIN      55  55  99 N12       29.88F
MATTOON        LGT RAIN  54  54 100 N13       29.84F FOG
PARIS*         LGT RAIN  58  58 100 E6        29.84F
$$

ILZ079-100>102-230900-
SOUTHWEST ILLINOIS

CITY           SKY/WX    TMP DP  RH WIND       PRES   REMARKS
ALTON          CLOUDY    50  50 100 NW13G18   29.91F
BELLEVILLE     CLOUDY    52  49  87 NW7       29.94F
CAHOKIA*       CLOUDY    54  50  86 NW8       29.94F
SPARTA*        CLOUDY    51  51  99 NW6       29.93S
$$

ILZ064>066-069>071-074>076-080>082-084>086-088>090-092>094-230900-
SOUTH-CENTRAL ILLINOIS

CITY           SKY/WX    TMP DP  RH WIND       PRES   REMARKS
CARBONDALE     CLOUDY    52  52 100 NW10      29.89S
CAIRO*         CLOUDY    54  52  95 NW7       29.91S
EFFINGHAM*     HVY RAIN  54  54 100 NW14      29.87F
MARION         CLOUDY    54  54  99 NW8G17    29.87F
MT. VERNON     CLOUDY    53  51  93 SW7       29.89R
CENTRALIA*     CLOUDY    53  53  98 W7        29.90R
SALEM*         CLOUDY    54  51  90 N12G24    29.88R
METROPOLIS*    DRIZZLE   55  53  94 NW5       29.89F
$$

ILZ067-068-072-073-078-083-087-091-230900-
SOUTHEAST ILLINOIS

CITY           SKY/WX    TMP DP  RH WIND       PRES   REMARKS
LAWRENCEVILLE  LGT RAIN  65  32  29 SE9       29.82F
FLORA*         LGT RAIN  55  54  94 NW10      29.82R
FAIRFIELD*     CLOUDY    54  54 100 NW5       29.85R
HARRISBURG*    CLOUDY    54  53  97 N9G17     29.89R
ROBINSON*      LGT RAIN  64  64  99 SE9       29.83F
CARMI*         RAIN      55  55  97 W8        29.85R
$$

ABBREVIATIONS USED IN REMARKS
   TC - TEMPERATURE IN CELSIUS
  WCI - WIND CHILL INDEX
   HX - HEAT INDEX
  VSB - VISIBILITY
$$





USA.gov is the U.S. government's official web portal to all federal, state and local government web resources and services.